Flag for U.S.A. Weather past 2 weeks in Oxnard, California, U.S.A.

Now
55 °F

Clear.


Feels Like: 54 °F
Forecast: 50 / 67 °F
Wind: 5 mph from Northwest

Location: Oxnard Airport

Current Time: Apr 2, 2015 at 1:43:45 AM

Latest Report: Apr 2, 2015 at 12:51 AM


Visibility: 8 mi

Pressure: 29.94 "Hg

Humidity: 77%

Dew point: 48 °F

Location of OxnardLocation

Historic Weather in Oxnard — Graph

°F

Oxnard temperature yesterday

Maximum temperature yesterday: 68 °F (at 11:51 AM)
Minimum temperature yesterday: 52 °F (at 4:51 AM)
Average temperature yesterday: 60 °F

Past Weeks' High & Low Weather Summary

 TemperatureHumidityPressure
High81 °F (Mar 26, 10:51 AM)97% (Mar 29, 7:54 AM)30.19 "Hg (Mar 29, 7:54 AM)
Low52 °F (Mar 28, 5:51 AM)20% (Mar 26, 9:51 AM)29.88 "Hg (Apr 1, 6:51 PM)
Average62 °F72%30.03 "Hg
* Reported Mar 17 11:51 PM — Apr 1 11:51 PM, Oxnard, Weather by CustomWeather, © 2015

Note: Actual official high and low records may vary slightly from our data, if they occured in-between our weather recording intervals... More about our weather records

Advertising

Oxnard weather history for previous 24 hours

 ConditionsComfort  
Time TempWeatherWind HumidityBarometerVisibility
11:51 PM
Wed, Apr 1
54 °FClear.3 mph74%29.93 "Hg9 mi
10:51 PM56 °FClear.No wind72%29.92 "Hg9 mi
9:51 PM59 °FClear.5 mph69%29.91 "Hg9 mi
8:51 PM61 °FClear.9 mph65%29.90 "Hg9 mi
7:51 PM60 °FSunny.13 mph67%29.89 "Hg9 mi
6:51 PM63 °FSunny.17 mph58%29.88 "Hg8 mi
5:51 PM65 °FSunny.9 mph59%29.89 "Hg8 mi
4:51 PM66 °FSunny.15 mph56%29.90 "Hg8 mi
3:51 PM66 °FSunny.14 mph54%29.92 "Hg9 mi
2:51 PM68 °FSunny.12 mph55%29.94 "Hg10 mi
1:51 PM68 °FSunny.13 mph51%29.96 "Hg10 mi
12:51 PM67 °FSunny.10 mph49%29.99 "Hg10 mi
11:51 AM68 °FSunny.14 mph53%30.01 "Hg10 mi
10:51 AM66 °FSunny.9 mph61%30.01 "Hg8 mi
9:51 AM65 °FSunny.3 mph63%30.01 "Hg9 mi
8:51 AM62 °FSunny.No wind70%30.01 "Hg7 mi
7:51 AM56 °FSunny.3 mph81%30.01 "Hg7 mi
6:51 AM52 °FFog.3 mph86%29.97 "Hg6 mi
5:51 AM53 °FPassing clouds.3 mph83%29.94 "Hg8 mi
4:51 AM52 °FClear.5 mph86%29.95 "Hg8 mi
3:51 AM54 °FClear.6 mph83%29.95 "Hg9 mi
2:51 AM55 °FPassing clouds.No wind80%29.97 "Hg8 mi
1:51 AM56 °FClear.5 mph84%29.97 "Hg8 mi
Weather by CustomWeather, © 2015

See weather overviewHow to use our weather pages